Location: Rio Tanui
(39.9167°N, 8.5167°E)
Time: 02:12:51
(UTC+00:00)

SKYMED 2 - Pass Details

Date: 08 February 2023
Orbit: 621 x 623 km, 97.9° (Epoch: 01 April)

Event Time Altitude Azimuth Distance (km) Brightness Sun altitude
Rises 17:47:56 0° 8° (N) 2,915 6.8 -11.0°
Reaches altitude 10° 17:50:09 10° 5° (N) 2,004 6.0 -11.4°
Maximum altitude 17:54:26 59° 286° (WNW) 721 4.2 -12.2°
Drops below altitude 10° 17:58:41 10° 207° (SSW) 1,987 6.7 -13.0°
Sets 18:00:53 0° 203° (SSW) 2,889 7.5 -13.4°
